QPF
0.00 0.00 0.00 0.00 0.00 0.00 0.00 0.00 0.00 0.00 0.00 0.00 0.00 0.00 0.00 0.00 0.00 0.00 0.00 0.00 0.00 0.00 0.00 0.00 0.00 0.00 0.00 0.00 0.00 0.00 0.00 0.00 0.00 0.00 0.00 0.00 0.03 0.06
0.00 0.00 0.01 0.01 0.01 0.01 0.01 0.01 0.01 0.01 0.00 0.00 0.00 0.00 0.00 0.00 0.00 0.00 0.00 0.00 0.00 0.00 0.00 0.00 0.00 0.00 0.00 0.00 0.00 0.00 0.00 0.00 0.00 0.00 0.01 0.01 0.03 0.07
0.00 0.00 0.00 0.00 0.01 0.01 0.01 0.01 0.01 0.01 0.01 0.00 0.00 0.00 0.00 0.00 0.00 0.00 0.00 0.00 0.00 0.00 0.00 0.00 0.00 0.00 0.00 0.00 0.00 0.00 0.00 0.00 0.00 0.00 0.01 0.01 0.02 0.06
0.00 0.00 0.00 0.01 0.00 0.01 0.01 0.01 0.01 0.01 0.01 0.00 0.00 0.00 0.00 0.00 0.00 0.00 0.00 0.00 0.00 0.00 0.00 0.00 0.00 0.00 0.00 0.00 0.00 0.00 0.00 0.00 0.00 0.00 0.01 0.02 0.03 0.05
0.00 0.00 0.00 0.00 0.00 0.01 0.00 0.00 0.00 0.00 0.00 0.00 0.00 0.00 0.00 0.00 0.00 0.00 0.00 0.00 0.00 0.00 0.00 0.00 0.00 0.00 0.00 0.00 0.00 0.00 0.00 0.00 0.00 0.00 0.01 0.01 0.02 0.03
0.00 0.00 0.00 0.00 0.01 0.01 0.00 0.00 0.00 0.00 0.00 0.00 0.00 0.00 0.00 0.00 0.00 0.00 0.00 0.00 0.00 0.00 0.00 0.00 0.00 0.00 0.00 0.00 0.00 0.00 0.00 0.00 0.00 0.00 0.01 0.01 0.02 0.02
0.00 0.00 0.01 0.02 0.03 0.02 0.01 0.00 0.00 0.00 0.00 0.00 0.00 0.00 0.00 0.00 0.01 0.00 0.00 0.00 0.00 0.00 0.00 0.00 0.00 0.00 0.00 0.00 0.00 0.00 0.00 0.00 0.00 0.00 0.01 0.01 0.01 0.02
0.00 0.00 0.00 0.01 0.01 0.00 0.01 0.00 0.00 0.00 0.00 0.00 0.00 0.00 0.00 0.00 0.00 0.00 0.00 0.00 0.00 0.00 0.00 0.00 0.00 0.00 0.00 0.00 0.00 0.00 0.00 0.00 0.00 0.00 0.01 0.01 0.01 0.03
0.00 0.00 0.00 0.00 0.00 0.00 0.00 0.00 0.00 0.00 0.00 0.00 0.00 0.00 0.00 0.00 0.00 0.00 0.00 0.00 0.00 0.00 0.00 0.00 0.00 0.00 0.00 0.00 0.00 0.00 0.00 0.00 0.00 0.00 0.01 0.01 0.02 0.04
0.00 0.00 0.00 0.00 0.00 0.00 0.00 0.00 0.00 0.00 0.00 0.00 0.00 0.00 0.00 0.00 0.00 0.00 0.00 0.00 0.00 0.00 0.00 0.00 0.00 0.00 0.00 0.00 0.00 0.00 0.00 0.00 0.00 0.00 0.01 0.01 0.03 0.04
0.00 0.00 0.00 0.00 0.00 0.01 0.00 0.00 0.00 0.00 0.00 0.00 0.00 0.00 0.00 0.00 0.00 0.00 0.00 0.00 0.00 0.00 0.00 0.00 0.00 0.00 0.00 0.00 0.00 0.00 0.00 0.00 0.00 0.00 0.01 0.01 0.02 0.03
0.00 0.00 0.00 0.00 0.00 0.00 0.00 0.00 0.00 0.00 0.00 0.00 0.00 0.00 0.00 0.00 0.00 0.00 0.00 0.00 0.00 0.00 0.00 0.00 0.00 0.00 0.00 0.00 0.00 0.00 0.00 0.00 0.00 0.00 0.01 0.02 0.02 0.03
0.00 0.00 0.00 0.00 0.00 0.00 0.00 0.00 0.00 0.00 0.00 0.00 0.00 0.00 0.00 0.00 0.00 0.00 0.00 0.00 0.00 0.00 0.00 0.00 0.00 0.00 0.00 0.00 0.00 0.00 0.00 0.00 0.00 0.00 0.02 0.04 0.03 0.03
0.00 0.00 0.00 0.00 0.00 0.00 0.00 0.00 0.00 0.00 0.00 0.00 0.00 0.00 0.00 0.00 0.00 0.00 0.00 0.00 0.00 0.00 0.00 0.00 0.00 0.00 0.00 0.00 0.00 0.00 0.00 0.00 0.00 0.00 0.02 0.04 0.05 0.03
0.00 0.00 0.00 0.00 0.00 0.00 0.00 0.00 0.00 0.00 0.00 0.00 0.00 0.00 0.00 0.00 0.00 0.00 0.00 0.00 0.00 0.00 0.00 0.00 0.00 0.00 0.00 0.00 0.00 0.00 0.00 0.00 0.00 0.01 0.02 0.03 0.04 0.02
0.00 0.00 0.00 0.00 0.00 0.00 0.00 0.00 0.00 0.00 0.00 0.00 0.00 0.00 0.00 0.00 0.00 0.00 0.00 0.00 0.00 0.00 0.00 0.00 0.00 0.00 0.00 0.00 0.00 0.00 0.00 0.00 0.00 0.01 0.01 0.03 0.03 0.01
0.00 0.00 0.00 0.00 0.00 0.00 0.00 0.00 0.00 0.00 0.00 0.00 0.00 0.00 0.00 0.00 0.00 0.00 0.00 0.00 0.00 0.00 0.00 0.00 0.00 0.00 0.00 0.00 0.00 0.00 0.00 0.00 0.00 0.00 0.01 0.01 0.01 0.00
0.00 0.00 0.00 0.00 0.00 0.00 0.00 0.00 0.00 0.00 0.00 0.00 0.00 0.00 0.00 0.00 0.00 0.00 0.00 0.00 0.00 0.00 0.00 0.00 0.00 0.00 0.00 0.00 0.00 0.00 0.00 0.00 0.00 0.00 0.01 0.00 0.00 0.00
0.00 0.00 0.00 0.00 0.00 0.00 0.00 0.00 0.00 0.00 0.00 0.00 0.00 0.00 0.00 0.00 0.00 0.00 0.00 0.00 0.00 0.00 0.00 0.00 0.00 0.00 0.00 0.00 0.00 0.00 0.00 0.00 0.00 0.00 0.01 0.00 0.00 0.00
0.00 0.00 0.00 0.00 0.00 0.00 0.00 0.00 0.00 0.00 0.00 0.00 0.00 0.00 0.00 0.00 0.00 0.00 0.00 0.00 0.00 0.00 0.00 0.00 0.00 0.00 0.00 0.00 0.00 0.00 0.00 0.00 0.00 0.00 0.00 0.00 0.00 0.00
0.00 0.00 0.00 0.00 0.00 0.00 0.00 0.00 0.00 0.00 0.00 0.00 0.00 0.00 0.00 0.00 0.00 0.00 0.00 0.00 0.00 0.00 0.00 0.00 0.00 0.00 0.00 0.00 0.00 0.00 0.00 0.00 0.00 0.00 0.00 0.00 0.00 0.00
0.00 0.00 0.00 0.00 0.00 0.00 0.00 0.00 0.00 0.00 0.00 0.00 0.00 0.00 0.00 0.00 0.00 0.00 0.00 0.00 0.00 0.00 0.00 0.00 0.00 0.00 0.00 0.00 0.00 0.00 0.00 0.00 0.00 0.00 0.00 0.00 0.00 0.00
0.00 0.00 0.00 0.00 0.00 0.00 0.00 0.00 0.00 0.00 0.00 0.00 0.00 0.00 0.00 0.00 0.00 0.00 0.00 0.00 0.00 0.00 0.00 0.00 0.00 0.00 0.00 0.00 0.00 0.00 0.00 0.00 0.00 0.00 0.00 0.00 0.00 0.00
MSLP
1023.34 1022.88 1022.48 1021.96 1021.19 1021.17 1020.92 1020.72 1020.46 1019.68 1019.01 1018.61 1018.37 1017.71 1017.50 1017.21 1016.91 1016.68 1016.63 1016.41 1016.36 1016.26 1016.26 1016.26 1016.12 1015.92 1015.84 1015.64 1015.61 1015.68 1015.62 1015.21 1014.75 1014.27 1013.90 1013.87 1013.72 1012.87
1022.77 1022.29 1021.79 1021.25 1020.82 1020.45 1020.17 1019.88 1019.69 1019.45 1018.65 1018.18 1017.82 1017.38 1017.03 1016.61 1016.32 1016.14 1016.09 1015.84 1015.82 1015.74 1015.70 1015.69 1015.51 1015.24 1015.17 1015.14 1015.16 1015.13 1014.94 1014.78 1014.68 1014.28 1013.98 1013.16 1012.86 1011.59
1022.21 1021.75 1021.14 1020.60 1020.11 1019.72 1019.47 1019.21 1018.98 1018.76 1018.21 1017.48 1017.37 1016.90 1016.58 1016.26 1015.91 1015.66 1015.50 1015.45 1015.38 1015.20 1015.03 1015.06 1014.79 1014.44 1014.28 1014.54 1014.60 1014.70 1014.62 1014.44 1014.42 1014.24 1013.84 1013.30 1012.14 1011.73
1021.71 1021.16 1020.45 1019.83 1019.31 1018.92 1018.70 1018.51 1018.31 1018.09 1017.89 1017.28 1016.90 1016.58 1016.17 1015.72 1015.43 1015.24 1015.00 1014.77 1014.76 1014.50 1014.38 1014.44 1014.34 1014.06 1014.04 1014.09 1013.90 1013.98 1014.04 1013.97 1013.97 1014.08 1014.03 1013.34 1012.87 1012.13
1021.22 1020.49 1019.77 1019.11 1018.47 1018.12 1017.94 1017.82 1017.66 1017.38 1017.20 1016.96 1016.40 1016.01 1015.58 1015.18 1014.96 1014.70 1014.56 1014.42 1014.19 1013.83 1013.62 1013.69 1013.66 1013.65 1013.50 1013.39 1013.08 1013.07 1013.23 1013.22 1013.34 1013.42 1013.64 1013.40 1013.30 1012.76
1020.66 1019.89 1019.19 1018.49 1017.86 1017.29 1017.27 1017.18 1016.94 1016.69 1016.42 1016.24 1015.86 1015.51 1015.15 1014.57 1014.50 1014.42 1014.40 1013.97 1013.68 1013.20 1013.08 1013.12 1013.16 1013.12 1012.80 1012.57 1012.35 1012.20 1012.41 1012.61 1012.79 1012.74 1012.90 1013.13 1013.00 1012.10
1020.37 1019.59 1018.87 1018.08 1017.42 1017.18 1016.83 1016.43 1016.30 1016.06 1015.77 1015.51 1015.17 1014.96 1014.76 1014.38 1014.17 1013.86 1013.98 1013.73 1013.09 1012.62 1012.51 1012.50 1012.62 1012.44 1011.91 1011.66 1011.41 1011.32 1011.57 1011.82 1011.94 1011.98 1011.91 1011.93 1011.79 1011.23
1020.15 1019.29 1018.52 1017.73 1017.30 1016.68 1016.29 1015.83 1015.51 1015.05 1014.70 1014.58 1014.30 1014.13 1013.87 1013.69 1013.54 1013.46 1013.54 1013.46 1013.16 1011.92 1011.82 1012.02 1012.19 1011.73 1011.18 1010.71 1010.54 1010.66 1010.82 1011.07 1011.46 1011.34 1010.96 1011.16 1010.66 1011.49
1020.04 1019.12 1018.22 1017.46 1016.78 1016.08 1015.40 1014.79 1014.29 1013.92 1013.68 1013.55 1013.27 1013.02 1012.90 1012.80 1013.00 1013.02 1012.96 1012.76 1012.57 1011.80 1011.84 1011.42 1011.38 1010.91 1010.27 1009.95 1009.84 1009.96 1010.05 1010.36 1010.60 1010.70 1010.64 1010.59 1010.32 1011.43
1019.86 1018.93 1018.06 1017.08 1016.18 1015.34 1014.49 1013.80 1013.24 1012.82 1012.48 1012.32 1012.08 1011.84 1011.85 1011.96 1012.24 1012.23 1012.44 1012.36 1011.86 1011.32 1011.26 1010.79 1010.26 1009.90 1009.44 1009.15 1009.04 1009.04 1009.16 1009.52 1009.97 1009.87 1009.84 1009.45 1010.11 1011.44
1019.61 1018.69 1017.74 1016.70 1015.72 1014.73 1013.84 1013.02 1012.34 1011.78 1011.40 1011.15 1011.06 1010.94 1011.10 1011.28 1011.44 1011.83 1012.11 1012.32 1011.67 1010.92 1010.34 1010.14 1009.70 1009.29 1008.84 1008.31 1008.16 1008.18 1008.21 1008.68 1009.05 1009.20 1009.30 1009.04 1010.14 1011.70
1019.48 1018.45 1017.47 1016.55 1015.37 1014.24 1013.26 1012.41 1011.76 1011.09 1010.60 1010.64 1010.68 1010.58 1010.49 1010.81 1010.94 1011.17 1011.52 1011.87 1011.51 1010.49 1010.05 1010.15 1009.31 1009.16 1008.44 1007.62 1007.58 1007.48 1007.45 1007.76 1008.10 1008.28 1008.85 1008.90 1010.34 1012.02
1019.76 1018.60 1017.61 1016.52 1015.32 1014.16 1013.14 1012.23 1011.60 1010.85 1010.49 1010.39 1010.45 1010.46 1010.48 1010.56 1010.59 1010.68 1010.82 1011.01 1010.73 1010.14 1009.68 1009.78 1009.15 1008.80 1008.40 1007.62 1007.13 1006.71 1006.79 1007.14 1007.60 1008.32 1008.57 1009.15 1010.34 1010.96
1020.16 1019.16 1018.11 1016.86 1015.62 1014.52 1013.46 1012.51 1011.68 1011.11 1010.76 1010.55 1010.50 1010.45 1010.41 1010.33 1010.21 1010.12 1010.03 1010.04 1009.84 1009.54 1009.18 1009.16 1008.91 1008.45 1008.03 1007.39 1006.89 1006.69 1006.82 1006.88 1007.04 1007.46 1008.46 1010.04 1010.84 1012.04
1020.75 1019.83 1018.70 1017.46 1016.26 1015.10 1014.08 1013.18 1012.30 1011.60 1011.06 1010.67 1010.56 1010.40 1010.23 1010.09 1010.02 1009.84 1009.66 1009.44 1009.13 1008.72 1008.56 1008.24 1007.92 1007.66 1007.58 1007.11 1006.61 1006.49 1006.38 1006.72 1007.07 1007.60 1008.72 1009.79 1010.93 1012.03
1021.27 1020.44 1019.44 1018.26 1017.04 1016.04 1014.85 1013.93 1013.15 1012.36 1011.68 1011.10 1010.66 1010.34 1010.07 1009.90 1009.72 1009.46 1009.20 1008.90 1008.72 1008.42 1008.18 1007.90 1007.24 1006.97 1006.99 1007.16 1006.93 1006.78 1006.62 1006.65 1006.88 1008.02 1008.71 1009.83 1011.04 1012.36
1022.02 1020.94 1019.78 1018.82 1017.95 1017.08 1016.06 1015.03 1014.05 1013.14 1012.36 1011.68 1011.03 1010.50 1010.10 1009.85 1009.62 1009.26 1008.90 1008.45 1008.36 1008.26 1008.00 1007.46 1007.01 1006.75 1006.71 1006.40 1006.92 1007.04 1006.89 1006.83 1007.22 1007.72 1008.70 1010.16 1011.52 1012.46
1022.76 1022.17 1021.48 1020.63 1019.69 1018.69 1017.50 1016.32 1015.29 1014.26 1013.28 1012.47 1011.72 1011.03 1010.45 1010.03 1009.70 1009.41 1009.18 1008.92 1008.46 1007.98 1007.59 1007.02 1006.72 1006.58 1006.61 1007.40 1008.15 1007.88 1007.34 1006.87 1007.18 1007.97 1009.54 1010.80 1012.74 1013.65
1024.07 1023.70 1023.01 1022.10 1021.18 1020.10 1018.91 1017.91 1016.81 1015.67 1014.49 1013.36 1012.62 1011.82 1011.04 1010.49 1010.12 1009.85 1009.48 1009.06 1008.63 1008.37 1008.20 1007.66 1007.40 1007.27 1007.64 1008.49 1009.19 1009.04 1008.36 1007.86 1007.90 1009.12 1010.31 1011.82 1013.84 1015.12
1025.43 1025.03 1024.34 1023.42 1022.49 1021.40 1020.18 1019.20 1018.06 1016.80 1015.43 1014.42 1013.58 1012.83 1011.92 1011.25 1010.65 1010.19 1009.79 1009.42 1009.05 1008.80 1008.59 1008.51 1008.50 1008.53 1008.32 1008.82 1009.71 1010.31 1008.93 1008.16 1008.40 1009.98 1011.71 1013.14 1014.86 1015.40
1026.66 1026.09 1025.46 1024.60 1023.70 1022.66 1021.34 1020.28 1019.32 1018.29 1017.07 1015.62 1014.51 1013.70 1012.94 1012.24 1011.65 1011.20 1010.55 1010.03 1009.58 1009.36 1009.25 1009.22 1009.46 1009.39 1009.34 1008.91 1009.73 1011.07 1010.84 1009.44 1009.38 1010.49 1011.76 1013.06 1014.71 1015.47
1027.93 1027.32 1026.48 1025.58 1024.86 1024.10 1022.69 1021.16 1019.77 1018.86 1018.02 1016.88 1015.86 1014.91 1014.13 1013.43 1012.74 1012.20 1011.64 1011.24 1010.95 1010.65 1010.63 1010.52 1010.23 1009.99 1009.86 1009.98 1010.71 1011.42 1011.83 1011.83 1011.62 1011.91 1012.86 1013.02 1013.57 1014.71
1029.04 1028.45 1027.64 1026.62 1025.70 1025.15 1024.48 1022.95 1021.53 1019.98 1018.76 1017.80 1016.72 1015.90 1015.26 1014.56 1014.07 1013.47 1012.88 1012.28 1012.03 1011.88 1011.75 1011.53 1011.40 1011.05 1011.00 1011.28 1011.42 1012.00 1012.45 1012.62 1012.82 1013.44 1015.05 1015.07 1014.40 1014.66
Thickness
5266 5263 5260 5257 5257 5251 5247 5245 5243 5250 5254 5255 5257 5265 5269 5275 5280 5287 5295 5303 5312 5322 5330 5339 5349 5360 5377 5398 5419 5436 5457 5481 5503 5525 5546 5562 5574 5591
5259 5256 5252 5249 5245 5241 5239 5239 5237 5238 5245 5246 5249 5253 5259 5264 5270 5277 5284 5293 5303 5313 5321 5331 5343 5355 5370 5391 5412 5430 5453 5476 5494 5518 5539 5561 5575 5595
5252 5247 5244 5240 5237 5235 5232 5231 5230 5230 5235 5240 5240 5245 5250 5254 5261 5267 5274 5283 5294 5304 5315 5325 5338 5351 5365 5384 5407 5425 5447 5470 5488 5512 5532 5550 5568 5591
5245 5240 5237 5235 5232 5229 5227 5224 5223 5222 5224 5229 5231 5236 5242 5248 5253 5259 5266 5275 5285 5296 5308 5318 5330 5344 5358 5379 5403 5423 5445 5466 5485 5507 5523 5544 5562 5582
5238 5235 5232 5230 5228 5224 5221 5217 5215 5215 5216 5219 5223 5229 5235 5242 5247 5253 5260 5269 5279 5292 5305 5316 5326 5336 5351 5375 5401 5422 5446 5466 5482 5506 5520 5541 5555 5570
5233 5230 5227 5225 5223 5220 5215 5211 5209 5208 5210 5212 5217 5223 5229 5238 5242 5247 5253 5263 5275 5290 5301 5311 5319 5331 5349 5373 5398 5423 5444 5464 5484 5505 5523 5541 5558 5575
5228 5225 5221 5219 5217 5212 5209 5207 5204 5203 5204 5207 5212 5217 5222 5227 5241 5245 5248 5259 5273 5287 5296 5306 5314 5329 5351 5376 5401 5426 5448 5466 5487 5508 5528 5547 5562 5579
5224 5220 5217 5215 5210 5208 5205 5203 5202 5202 5203 5205 5209 5215 5222 5225 5236 5237 5242 5250 5259 5282 5293 5301 5312 5330 5354 5380 5407 5430 5451 5469 5489 5512 5534 5552 5567 5574
5220 5216 5213 5210 5208 5206 5205 5205 5204 5204 5204 5206 5211 5217 5223 5228 5232 5239 5244 5255 5259 5276 5284 5300 5314 5334 5359 5385 5415 5435 5456 5475 5495 5516 5535 5551 5568 5574
5216 5213 5210 5208 5207 5207 5208 5208 5208 5208 5209 5212 5217 5222 5227 5231 5234 5241 5244 5251 5262 5277 5288 5305 5323 5342 5368 5394 5422 5444 5465 5483 5501 5521 5540 5559 5570 5572
5216 5212 5210 5209 5209 5209 5210 5211 5212 5215 5219 5222 5225 5229 5232 5235 5239 5242 5243 5250 5266 5282 5297 5312 5329 5351 5376 5406 5432 5454 5475 5491 5507 5527 5543 5562 5568 5568
5219 5216 5213 5211 5213 5215 5218 5220 5223 5227 5230 5231 5232 5236 5240 5242 5247 5253 5256 5263 5273 5292 5304 5317 5338 5357 5386 5416 5439 5460 5483 5500 5518 5535 5546 5561 5563 5560
5221 5219 5217 5217 5219 5222 5226 5229 5232 5236 5239 5240 5242 5245 5250 5255 5260 5266 5270 5275 5287 5300 5315 5325 5346 5366 5392 5420 5446 5472 5491 5507 5523 5534 5550 5559 5561 5567
5225 5223 5221 5223 5226 5230 5234 5237 5241 5245 5249 5253 5256 5260 5264 5269 5275 5281 5287 5294 5303 5314 5327 5340 5356 5380 5405 5430 5454 5472 5492 5512 5530 5542 5547 5546 5555 5560
5229 5227 5229 5231 5235 5239 5244 5248 5254 5259 5264 5269 5272 5275 5279 5283 5287 5294 5302 5310 5321 5333 5344 5359 5379 5399 5420 5443 5464 5480 5501 5514 5531 5544 5544 5548 5553 5557
5236 5236 5237 5240 5245 5249 5256 5261 5265 5271 5276 5281 5285 5288 5293 5297 5303 5310 5319 5328 5338 5350 5362 5378 5399 5418 5436 5452 5472 5489 5507 5520 5531 5538 5549 5554 5555 5556
5243 5245 5249 5252 5255 5258 5263 5268 5274 5280 5285 5290 5296 5301 5307 5312 5319 5326 5336 5347 5356 5366 5378 5395 5413 5430 5446 5467 5479 5492 5510 5528 5539 5549 5551 5552 5553 5556
5251 5250 5249 5251 5254 5258 5265 5272 5278 5284 5291 5297 5303 5310 5318 5325 5331 5340 5349 5358 5370 5382 5395 5410 5426 5441 5452 5460 5468 5487 5507 5534 5544 5550 5547 5547 5544 5547
5253 5249 5249 5252 5254 5259 5266 5271 5277 5284 5293 5302 5308 5318 5328 5336 5344 5352 5360 5371 5382 5393 5404 5418 5432 5446 5459 5464 5468 5483 5506 5523 5541 5542 5545 5549 5538 5540
5252 5250 5250 5253 5256 5261 5268 5272 5278 5286 5297 5305 5313 5321 5332 5342 5351 5361 5370 5380 5392 5403 5414 5423 5432 5443 5460 5467 5475 5482 5508 5532 5543 5537 5531 5533 5534 5541
5251 5252 5252 5255 5258 5262 5270 5276 5279 5283 5292 5305 5316 5323 5332 5343 5355 5364 5376 5387 5398 5408 5417 5426 5432 5443 5457 5474 5483 5486 5500 5521 5535 5540 5539 5542 5533 5534
5251 5252 5255 5259 5260 5261 5270 5281 5290 5293 5296 5305 5314 5324 5334 5346 5358 5367 5377 5387 5396 5406 5415 5424 5435 5447 5461 5474 5481 5490 5497 5507 5519 5527 5531 5541 5546 5540
5252 5252 5256 5261 5266 5264 5265 5276 5286 5298 5307 5313 5321 5330 5339 5349 5358 5368 5379 5389 5397 5403 5412 5425 5435 5447 5458 5468 5479 5487 5495 5504 5509 5513 5512 5522 5537 5549